When you browse on this site, cookies collect data to enhance your experience and personalize the content and advertising you see.
Visit our Privacy Policy to learn more. By continuing to use the site, you agree to this use of cookies and data.
  • In France
  • List of Countries
  • For 7 days
  • Water Temperature
  • Satellite Maps
  • Weather Map
  • Weather Widgets
  • user-avatar
    Login

    Hourly Weather Gwatemala

    Today, 21 July, Sunday

    Time Temperature Precipitation Wind Pressure Humidity
    00:00 +18°C° 0 mm 1 mps 636 mmHg 95%
    01:00 +18°C° 0.3 mm 1 mps 636 mmHg 95%
    02:00 +18°C° 0.3 mm 1 mps 636 mmHg 95%
    03:00 +16°C° 0.3 mm 1 mps 636 mmHg 95%
    04:00 +16°C° 0 mm 1 mps 636 mmHg 95%
    05:00 +16°C° 0 mm 1 mps 636 mmHg 95%
    06:00 +16°C° 0 mm 1 mps 635 mmHg 94%
    07:00 +18°C° 0 mm 1 mps 637 mmHg 90%
    08:00 +20°C° 0 mm 1 mps 638 mmHg 85%
    09:00 +22°C° 0 mm 1 mps 639 mmHg 80%
    10:00 +24°C° 0.1 mm 1 mps 639 mmHg 73%
    11:00 +25°C° 0.1 mm 1 mps 639 mmHg 66%
    12:00 +27°C° 0.1 mm 1 mps 639 mmHg 58%
    13:00 +27°C° 0.1 mm 1 mps 639 mmHg 59%
    14:00 +27°C° 0.1 mm 1 mps 638 mmHg 60%
    15:00 +26°C° 0.1 mm 1 mps 638 mmHg 60%
    16:00 +25°C° 0.6 mm 1 mps 637 mmHg 69%
    17:00 +23°C° 0.6 mm 1 mps 637 mmHg 78%
    18:00 +20°C° 0.6 mm 0 mps 636 mmHg 87%
    19:00 +21°C° 0.4 mm 1 mps 636 mmHg 89%
    20:00 +19°C° 0.4 mm 1 mps 637 mmHg 90%
    21:00 +18°C° 0.4 mm 1 mps 637 mmHg 91%
    22:00 +18°C° 0.4 mm 1 mps 637 mmHg 91%
    23:00 +18°C° 0.4 mm 1 mps 637 mmHg 92%

    Tomorrow, 22 July, Monday

    Time Temperature Precipitation Wind Pressure Humidity
    00:00 +18°C° 0.4 mm 1 mps 637 mmHg 92%
    01:00 +16°C° 0.1 mm 1 mps 636 mmHg 91%
    02:00 +16°C° 0.1 mm 1 mps 636 mmHg 91%
    03:00 +16°C° 0.1 mm 1 mps 636 mmHg 91%
    04:00 +16°C° 0 mm 1 mps 636 mmHg 91%
    05:00 +16°C° 0 mm 1 mps 636 mmHg 91%
    06:00 +16°C° 0 mm 1 mps 636 mmHg 91%
    07:00 +19°C° 0 mm 1 mps 637 mmHg 85%
    08:00 +21°C° 0 mm 1 mps 638 mmHg 79%
    09:00 +23°C° 0 mm 1 mps 639 mmHg 73%
    10:00 +24°C° 0 mm 1 mps 639 mmHg 67%
    11:00 +26°C° 0 mm 1 mps 639 mmHg 61%
    12:00 +27°C° 0 mm 1 mps 639 mmHg 55%
    13:00 +26°C° 0.3 mm 1 mps 639 mmHg 60%
    14:00 +26°C° 0.3 mm 1 mps 638 mmHg 65%
    15:00 +25°C° 0.3 mm 1 mps 638 mmHg 69%
    16:00 +24°C° 0.3 mm 1 mps 637 mmHg 76%
    17:00 +21°C° 0.3 mm 0 mps 637 mmHg 82%
    18:00 +20°C° 0.3 mm 0 mps 637 mmHg 88%
    19:00 +20°C° 0.1 mm 1 mps 637 mmHg 89%
    20:00 +19°C° 0.1 mm 1 mps 637 mmHg 89%
    21:00 +18°C° 0.1 mm 1 mps 637 mmHg 90%
    22:00 +16°C° 0.1 mm 1 mps 637 mmHg 90%
    23:00 +16°C° 0.1 mm 1 mps 637 mmHg 91%

    Day after tomorrow, 23 July, Tuesday

    Time Temperature Precipitation Wind Pressure Humidity
    00:00 +16°C° 0.1 mm 1 mps 637 mmHg 91%
    01:00 +16°C° 0 mm 1 mps 637 mmHg 91%
    02:00 +16°C° 0 mm 1 mps 637 mmHg 92%
    03:00 +16°C° 0 mm 1 mps 636 mmHg 92%
    04:00 +16°C° 0 mm 1 mps 636 mmHg 92%
    05:00 +16°C° 0 mm 1 mps 636 mmHg 91%
    06:00 +16°C° 0 mm 1 mps 636 mmHg 91%
    07:00 +19°C° 0 mm 1 mps 638 mmHg 84%
    08:00 +21°C° 0 mm 1 mps 639 mmHg 77%
    09:00 +24°C° 0 mm 1 mps 640 mmHg 69%
    10:00 +25°C° 0 mm 1 mps 640 mmHg 66%
    11:00 +26°C° 0 mm 1 mps 640 mmHg 62%
    12:00 +26°C° 0 mm 1 mps 639 mmHg 59%
    13:00 +26°C° 0.3 mm 1 mps 639 mmHg 60%
    14:00 +26°C° 0.3 mm 1 mps 639 mmHg 61%
    15:00 +26°C° 0.3 mm 1 mps 638 mmHg 62%
    16:00 +24°C° 0.4 mm 1 mps 638 mmHg 72%
    17:00 +23°C° 0.4 mm 1 mps 637 mmHg 81%
    18:00 +21°C° 0.4 mm 1 mps 637 mmHg 91%
    19:00 +20°C° 0.1 mm 1 mps 637 mmHg 92%
    20:00 +19°C° 0.1 mm 1 mps 637 mmHg 93%
    21:00 +18°C° 0.1 mm 1 mps 638 mmHg 94%
    22:00 +18°C° 0 mm 1 mps 637 mmHg 94%
    23:00 +16°C° 0 mm 1 mps 637 mmHg 95%

    24 July, Wednesday

    Time Temperature Precipitation Wind Pressure Humidity
    00:00 +16°C° 0 mm 1 mps 637 mmHg 95%
    01:00 +16°C° 0 mm 1 mps 637 mmHg 95%
    02:00 +15°C° 0 mm 1 mps 636 mmHg 95%
    03:00 +15°C° 0 mm 1 mps 636 mmHg 95%
    04:00 +15°C° 0 mm 1 mps 636 mmHg 94%
    05:00 +15°C° 0 mm 1 mps 636 mmHg 93%
    06:00 +14°C° 0 mm 1 mps 636 mmHg 92%
    07:00 +18°C° 0 mm 1 mps 637 mmHg 83%
    08:00 +20°C° 0 mm 1 mps 638 mmHg 75%
    09:00 +23°C° 0 mm 1 mps 639 mmHg 66%
    10:00 +24°C° 0 mm 1 mps 640 mmHg 62%
    11:00 +25°C° 0 mm 1 mps 640 mmHg 58%
    12:00 +26°C° 0 mm 1 mps 640 mmHg 54%
    13:00 +26°C° 0.3 mm 1 mps 639 mmHg 57%
    14:00 +26°C° 0.3 mm 1 mps 638 mmHg 60%
    15:00 +25°C° 0.3 mm 1 mps 637 mmHg 63%
    16:00 +24°C° 0.5 mm 1 mps 637 mmHg 72%
    17:00 +23°C° 0.5 mm 1 mps 637 mmHg 80%
    18:00 +22°C° 0.5 mm 1 mps 637 mmHg 89%
    19:00 +20°C° 0.2 mm 1 mps 637 mmHg 91%
    20:00 +19°C° 0.2 mm 1 mps 637 mmHg 93%
    21:00 +18°C° 0.2 mm 1 mps 637 mmHg 95%
    22:00 +16°C° 0 mm 1 mps 637 mmHg 95%
    23:00 +16°C° 0 mm 1 mps 636 mmHg 95%

    25 July, Thursday

    Time Temperature Precipitation Wind Pressure Humidity
    00:00 +16°C° 0 mm 1 mps 636 mmHg 96%
    01:00 +15°C° 0 mm 1 mps 636 mmHg 96%
    02:00 +15°C° 0 mm 1 mps 635 mmHg 96%
    03:00 +15°C° 0 mm 1 mps 635 mmHg 95%
    04:00 +15°C° 0 mm 1 mps 635 mmHg 95%
    05:00 +15°C° 0 mm 1 mps 635 mmHg 94%
    06:00 +15°C° 0 mm 1 mps 636 mmHg 93%
    07:00 +18°C° 0 mm 1 mps 637 mmHg 85%
    08:00 +20°C° 0 mm 1 mps 638 mmHg 77%
    09:00 +23°C° 0 mm 1 mps 639 mmHg 69%
    10:00 +24°C° 0 mm 1 mps 639 mmHg 65%
    11:00 +25°C° 0 mm 1 mps 639 mmHg 61%
    12:00 +26°C° 0 mm 1 mps 639 mmHg 57%
    13:00 +25°C° 0.8 mm 1 mps 638 mmHg 65%
    14:00 +24°C° 0.8 mm 1 mps 638 mmHg 74%
    15:00 +24°C° 0.8 mm 1 mps 637 mmHg 82%
    16:00 +23°C° 1 mm 1 mps 637 mmHg 86%
    17:00 +22°C° 1 mm 1 mps 637 mmHg 89%
    18:00 +21°C° 1 mm 1 mps 637 mmHg 93%
    19:00 +20°C° 0.4 mm 1 mps 637 mmHg 93%
    20:00 +19°C° 0.4 mm 1 mps 637 mmHg 93%
    21:00 +18°C° 0.4 mm 1 mps 637 mmHg 92%
    22:00 +18°C° 0 mm 1 mps 637 mmHg 93%
    23:00 +16°C° 0 mm 1 mps 637 mmHg 93%

    26 July, Friday

    Time Temperature Precipitation Wind Pressure Humidity
    00:00 +16°C° 0 mm 1 mps 637 mmHg 93%
    01:00 +16°C° 0 mm 1 mps 636 mmHg 94%
    02:00 +16°C° 0 mm 1 mps 636 mmHg 94%
    03:00 +15°C° 0 mm 1 mps 636 mmHg 94%
    04:00 +15°C° 0 mm 1 mps 636 mmHg 94%
    05:00 +15°C° 0 mm 1 mps 636 mmHg 94%
    06:00 +15°C° 0 mm 1 mps 636 mmHg 94%
    07:00 +18°C° 0 mm 1 mps 637 mmHg 88%
    08:00 +19°C° 0 mm 2 mps 638 mmHg 82%
    09:00 +21°C° 0 mm 2 mps 639 mmHg 75%
    10:00 +23°C° 0 mm 2 mps 639 mmHg 67%
    11:00 +25°C° 0 mm 2 mps 639 mmHg 58%
    12:00 +26°C° 0 mm 2 mps 639 mmHg 49%
    13:00 +26°C° 0 mm 2 mps 639 mmHg 49%
    14:00 +26°C° 0 mm 2 mps 639 mmHg 50%
    15:00 +26°C° 0 mm 2 mps 638 mmHg 50%
    16:00 +24°C° 0.1 mm 2 mps 638 mmHg 59%
    17:00 +23°C° 0.1 mm 1 mps 638 mmHg 69%
    18:00 +21°C° 0.1 mm 1 mps 637 mmHg 79%
    19:00 +20°C° 0 mm 1 mps 638 mmHg 82%
    20:00 +18°C° 0 mm 1 mps 638 mmHg 85%
    21:00 +16°C° 0 mm 1 mps 638 mmHg 88%
    22:00 +16°C° 0 mm 1 mps 638 mmHg 88%
    23:00 +16°C° 0 mm 2 mps 638 mmHg 89%
    Show more